Weather in Berezhani

Ukraine / Ternopil District     49°26′49″N   24°56′27″E
temp.,
°C
wind,
m/s
gust,
m/s
humid.,
%
clouds,
%
prec.,
mm/h
press.,
hPa
HPBL,
m
9 may, sun
sun900:00+2w22885 0.0 102215
03:00+1wsw22915 0.0 102425
06:00+1w228842 0.0 102414
09:00+8wsw22685 0.0 1025314
12:00+12ssw23535 0.0 10241303
15:00+14sw345013 0.0 10231824
18:00+15s244952 0.0 10221416
21:00+9sse34747 0.0 102344
10 may, mon
mon1000:00+7sse37765 0.0 1024109
03:00+6se3117296 0.0 1024198
06:00+5se310765 0.0 1024175
09:00+11se611675 0.0 1023411
12:00+15se810595 0.0 1022787
15:00+18se89565 0.0 1021994
18:00+17se69668 0.0 1020845
21:00+12se513795 0.0 1021307
11 may, tue
tue1100:00+10se5148245 0.0 1021305
03:00+9ese614844 0.0 1021280
06:00+8se614785 0.0 1021297
09:00+12se713700 0.0 1020482
12:00+16se810590 0.0 1019920
15:00+18se79540 0.0 10181123
18:00+17ese69600 0.0 10161006
21:00+11ese412750 0.0 1016236
12 may, wed
wed1200:00+10ese513820 0.0 1016290
03:00+9ese5139477 0.0 1015297
06:00+9e51296100 0.0 1014286
09:00+12ese7108784 0.0 1013625
12:00+15ese78634 0.0 10121194
15:00+16ese675338 0.0 10101756
18:00+12e8107267 0.0 1010710
21:00+9ese611735 0.0 1009504
13 may, thu
thu1300:00+7ese512785 0.0 1009324
03:00+7ese5118398 0.0 1007368
06:00+8ese51198100 3.1 1005554
09:00+9se5998100 8.6 1005427
12:00+10sse5798100 3.2 1005312
15:00+14se6681100 3.4 1004884
18:00+13se6885100 0.5 1005703
21:00+11se4119365 0.8 1006375